This is the latest recevied weather packets stored in our database for station/object N9XRG. If no packets are shown the sender has not sent any weather packets the latest 10 day(s).
| Time | Temp. | Humidity | Pressure | Rain* | Wind** | Luminosity | Snow |
|---|---|---|---|---|---|---|---|
| 1778163631 | 11.67° C | 47% | 1015 hPa | 0 mm | - | 634 W/m² | - |
| 1778163327 | 11.67° C | 47% | 1014.8 hPa | 0 mm | - | 616 W/m² | - |
| 1778163023 | 11.67° C | 49% | 1014.9 hPa | 0 mm | - | 600 W/m² | - |
| 1778162721 | 11.11° C | 48% | 1015.1 hPa | 0 mm | - | 583 W/m² | - |
| 1778162418 | 11.67° C | 48% | 1015.1 hPa | 0 mm | - | 564 W/m² | - |
| 1778162115 | 11.11° C | 48% | 1015.1 hPa | 0 mm | - | 549 W/m² | - |
| 1778161812 | 11.67° C | 49% | 1015.1 hPa | 0 mm | - | 527 W/m² | - |
| 1778161508 | 11.67° C | 47% | 1015 hPa | 0 mm | - | 509 W/m² | - |
| 1778161204 | 11.67° C | 48% | 1015 hPa | 0 mm | - | 491 W/m² | - |
| 1778160900 | 11.67° C | 49% | 1015.1 hPa | 0 mm | - | 473 W/m² | - |
| 1778160599 | 11.11° C | 52% | 1015.1 hPa | 0 mm | - | 454 W/m² | - |
| 1778160295 | 10.56° C | 51% | 1015 hPa | 0 mm | - | 469 W/m² | - |
| 1778159991 | 10.56° C | 50% | 1015 hPa | 0 mm | - | 456 W/m² | - |
| 1778159688 | 10.56° C | 52% | 1015.1 hPa | 0 mm | - | 447 W/m² | - |
| 1778159385 | 10.56° C | 53% | 1015 hPa | 0 mm | - | 426 W/m² | - |
| 1778159082 | 10.56° C | 54% | 1015 hPa | 0 mm | - | 402 W/m² | - |
| 1778158781 | 10.56° C | 55% | 1015.2 hPa | 0 mm | - | 372 W/m² | - |
| 1778158479 | 10° C | 54% | 1015 hPa | 0 mm | - | 326 W/m² | - |
| 1778158176 | 9.44° C | 55% | 1014.9 hPa | 0 mm | - | 310 W/m² | - |
| 1778157872 | 9.44° C | 59% | 1014.9 hPa | 0 mm | - | 335 W/m² | - |
| 1778157570 | 8.89° C | 62% | 1015.1 hPa | 0 mm | - | 274 W/m² | - |
| 1778157267 | 7.78° C | 66% | 1015.1 hPa | 0 mm | - | 251 W/m² | - |
| 1778156964 | 7.22° C | 67% | 1015.4 hPa | 0 mm | - | 171 W/m² | - |
| 1778156659 | 6.67° C | 68% | 1015.5 hPa | 0 mm | - | 79 W/m² | - |
| 1778156355 | 6.11° C | 68% | 1015 hPa | 0 mm | - | 80 W/m² | - |
* Rain latest hour (hover to see other rain measurements)
** Current wind speed in m/s (hover to see current wind gust speed)